{"data":{"norad_id":58191,"intl_designator":"2023-167S","name":"STARLINK-30785","alt_names":[],"object_type":"PAYLOAD","status":"ACTIVE","operator":null,"country":"US","launch_date":"2023-10-30","launch_site_code":"AFETR","launch_vehicle":null,"mission":null,"orbit_class":"UNKNOWN","rcs_meters":null,"size_class":null,"mass_kg":null,"dimensions":null,"purposes":["comms"],"wikipedia_slug":null,"has_3d_model":false,"image_url":null,"decayed_at":null,"tle_current":{"epoch":"2026-05-25T04:37:19.153056Z","epoch_age_seconds":58475,"freshness":"FRESH","line1":"1 58191U 23167S   26145.19258279  .00000021  00000+0  10295-4 0  9997","line2":"2 58191  43.0040  71.4826 0001159 245.4738 114.5993 15.27577711142680","mean_motion":15.27577711,"eccentricity":0.0001159,"inclination_deg":43.004,"raan_deg":71.4826,"arg_perigee_deg":245.4738,"mean_anomaly_deg":114.5993,"bstar":1.0295e-5,"rev_number":14268,"period_min":94.266889967734,"perigee_km":482.26073787476,"apogee_km":483.8511624006,"semimajor_km":6861.1929501377,"source":"CELESTRAK","updated_at":"2026-05-25T13:38:18.572293Z"}}}